TimeCST,TemperatureF,Dew PointF,Humidity,Sea Level PressureIn,VisibilityMPH,Wind Direction,Wind SpeedMPH,Gust SpeedMPH,PrecipitationIn,Events,Conditions,WindDirDegrees,DateUTC
12:15 AM,-16.8,-21.1,81,30.15,10.0,Calm,Calm,-,N/A,,Clear,0,2014-02-03 06:15:00
12:35 AM,-18.8,-23.3,80,30.15,10.0,Calm,Calm,-,N/A,,Clear,0,2014-02-03 06:35:00
12:55 AM,-18.2,-22.2,82,30.15,10.0,Calm,Calm,-,N/A,,Clear,0,2014-02-03 06:55:00
1:15 AM,-17.5,-21.6,81,30.15,10.0,Calm,Calm,-,N/A,,Clear,0,2014-02-03 07:15:00
1:35 AM,-17.7,-21.8,81,30.15,10.0,Calm,Calm,-,N/A,,Clear,0,2014-02-03 07:35:00
1:55 AM,-19.3,-24.0,79,30.16,10.0,Calm,Calm,-,N/A,,Clear,0,2014-02-03 07:55:00
2:15 AM,-18.8,-23.8,78,30.16,10.0,Calm,Calm,-,N/A,,Clear,0,2014-02-03 08:15:00
2:35 AM,-16.4,-21.1,79,30.16,10.0,Calm,Calm,-,N/A,,Clear,0,2014-02-03 08:35:00
2:55 AM,-18.0,-22.4,81,30.16,10.0,Calm,Calm,-,N/A,,Clear,0,2014-02-03 08:55:00
3:15 AM,-16.8,-21.1,81,30.16,10.0,Calm,Calm,-,N/A,,Clear,0,2014-02-03 09:15:00
3:35 AM,-14.8,-18.6,83,30.16,10.0,Calm,Calm,-,N/A,,Clear,0,2014-02-03 09:35:00
3:55 AM,-16.6,-21.1,80,30.15,10.0,Calm,Calm,-,N/A,,Clear,0,2014-02-03 09:55:00
4:15 AM,-15.9,-20.2,81,30.15,10.0,Calm,Calm,-,N/A,,Clear,0,2014-02-03 10:15:00
4:35 AM,-15.7,-19.8,82,30.15,10.0,Calm,Calm,-,N/A,,Clear,0,2014-02-03 10:35:00
4:55 AM,-17.0,-21.6,79,30.15,10.0,Calm,Calm,-,N/A,,Clear,0,2014-02-03 10:55:00
5:15 AM,-18.0,-22.9,78,30.14,10.0,Calm,Calm,-,N/A,,Clear,0,2014-02-03 11:15:00
5:35 AM,-18.4,-23.3,78,30.14,10.0,Calm,Calm,-,N/A,,Clear,0,2014-02-03 11:35:00
5:55 AM,-14.8,-18.9,82,30.14,10.0,Calm,Calm,-,N/A,,Clear,0,2014-02-03 11:55:00
6:15 AM,-14.4,-18.9,80,30.14,10.0,Calm,Calm,-,N/A,,Clear,0,2014-02-03 12:15:00
6:35 AM,-13.5,-17.7,82,30.13,10.0,Calm,Calm,-,N/A,,Clear,0,2014-02-03 12:35:00
6:55 AM,-15.7,-20.4,79,30.13,10.0,Calm,Calm,-,N/A,,Clear,0,2014-02-03 12:55:00
7:15 AM,-17.3,-22.0,79,30.13,10.0,Calm,Calm,-,N/A,,Clear,0,2014-02-03 13:15:00
7:35 AM,-15.5,-20.2,79,30.13,10.0,Calm,Calm,-,N/A,,Clear,0,2014-02-03 13:35:00
7:55 AM,-14.3,-18.6,81,30.13,10.0,Calm,Calm,-,N/A,,Clear,0,2014-02-03 13:55:00
8:15 AM,-11.9,-15.9,83,30.14,10.0,Calm,Calm,-,N/A,,Clear,0,2014-02-03 14:15:00
8:35 AM,-3.8,-7.2,85,30.14,10.0,SSW,4.6,-,N/A,,Clear,200,2014-02-03 14:35:00
8:55 AM,-1.5,-5.1,85,30.14,10.0,SSW,3.5,-,N/A,,Clear,200,2014-02-03 14:55:00
9:15 AM,0.5,-3.1,85,30.14,10.0,SSW,5.8,-,N/A,,Clear,200,2014-02-03 15:15:00
9:35 AM,2.1,-1.7,84,30.14,10.0,SSW,5.8,-,N/A,,Clear,210,2014-02-03 15:35:00
9:55 AM,3.2,-0.4,85,30.14,10.0,SSW,5.8,-,N/A,,Clear,200,2014-02-03 15:55:00
10:15 AM,4.6,1.0,85,30.15,10.0,SW,4.6,-,N/A,,Clear,230,2014-02-03 16:15:00
10:35 AM,6.3,2.3,84,30.14,10.0,SSW,9.2,-,N/A,,Clear,210,2014-02-03 16:35:00
10:55 AM,7.5,3.6,84,30.14,10.0,SW,6.9,-,N/A,,Clear,230,2014-02-03 16:55:00
11:15 AM,8.2,3.6,81,30.14,10.0,SW,4.6,-,N/A,,Clear,230,2014-02-03 17:15:00
11:35 AM,9.3,3.7,78,30.13,10.0,SW,4.6,-,N/A,,Clear,230,2014-02-03 17:35:00
11:55 AM,10.8,3.0,71,30.12,10.0,SW,4.6,-,N/A,,Clear,220,2014-02-03 17:55:00
12:15 PM,12.0,3.4,68,30.12,10.0,SW,3.5,-,N/A,,Clear,220,2014-02-03 18:15:00
12:35 PM,13.3,4.3,67,30.11,10.0,SSW,5.8,-,N/A,,Clear,200,2014-02-03 18:35:00
12:55 PM,14.7,4.8,65,30.10,10.0,SW,3.5,-,N/A,,Clear,220,2014-02-03 18:55:00
1:15 PM,16.2,6.8,67,30.10,10.0,SSW,6.9,-,N/A,,Clear,200,2014-02-03 19:15:00
1:35 PM,17.2,7.5,66,30.09,10.0,SW,6.9,-,N/A,,Clear,230,2014-02-03 19:35:00
1:55 PM,17.1,7.2,65,30.09,10.0,SW,8.1,-,N/A,,Clear,220,2014-02-03 19:55:00
2:15 PM,17.2,7.3,65,30.09,10.0,WSW,9.2,-,N/A,,Clear,240,2014-02-03 20:15:00
2:35 PM,17.2,6.8,64,30.10,10.0,SW,9.2,-,N/A,,Clear,220,2014-02-03 20:35:00
2:55 PM,16.5,6.6,65,30.11,10.0,WSW,9.2,-,N/A,,Clear,250,2014-02-03 20:55:00
3:15 PM,15.8,5.9,65,30.11,10.0,SW,6.9,-,N/A,,Clear,230,2014-02-03 21:15:00
3:35 PM,15.1,5.5,66,30.12,10.0,SW,9.2,-,N/A,,Clear,230,2014-02-03 21:35:00
3:55 PM,14.4,5.0,66,30.13,10.0,SW,6.9,-,N/A,,Clear,230,2014-02-03 21:55:00
4:15 PM,13.3,4.3,67,30.14,10.0,SW,6.9,-,N/A,,Clear,220,2014-02-03 22:15:00
4:35 PM,12.9,4.1,68,30.14,10.0,WSW,4.6,-,N/A,,Clear,240,2014-02-03 22:35:00
4:55 PM,12.6,4.1,69,30.15,10.0,WSW,4.6,-,N/A,,Scattered Clouds,240,2014-02-03 22:55:00
5:15 PM,12.0,3.4,68,30.15,10.0,WSW,5.8,-,N/A,,Clear,240,2014-02-03 23:15:00
5:35 PM,11.1,3.2,70,30.15,10.0,WSW,3.5,-,N/A,,Clear,240,2014-02-03 23:35:00
5:55 PM,10.2,3.0,73,30.16,10.0,WSW,4.6,-,N/A,,Clear,240,2014-02-03 23:55:00
6:15 PM,9.5,2.7,74,30.17,10.0,SW,5.8,-,N/A,,Clear,230,2014-02-04 00:15:00
6:35 PM,9.5,2.7,74,30.18,10.0,SW,5.8,-,N/A,,Clear,230,2014-02-04 00:35:00
6:55 PM,9.1,2.3,74,30.19,10.0,SW,5.8,-,N/A,,Clear,230,2014-02-04 00:55:00
7:15 PM,8.6,2.1,75,30.20,10.0,WSW,4.6,-,N/A,,Scattered Clouds,250,2014-02-04 01:15:00
7:35 PM,8.2,1.8,75,30.20,10.0,WSW,3.5,-,N/A,,Clear,250,2014-02-04 01:35:00
7:55 PM,7.7,1.6,76,30.21,10.0,Calm,Calm,-,N/A,,Clear,0,2014-02-04 01:55:00
8:15 PM,7.2,1.4,77,30.20,10.0,Calm,Calm,-,N/A,,Clear,0,2014-02-04 02:15:00
8:35 PM,5.7,0.9,80,30.20,10.0,Calm,Calm,-,N/A,,Clear,0,2014-02-04 02:35:00
8:55 PM,1.6,-2.0,85,30.20,10.0,Calm,Calm,-,N/A,,Clear,0,2014-02-04 02:55:00
9:15 PM,-0.4,-3.5,87,30.21,10.0,Calm,Calm,-,N/A,,Clear,0,2014-02-04 03:15:00
9:35 PM,-2.0,-4.7,88,30.21,10.0,Calm,Calm,-,N/A,,Clear,0,2014-02-04 03:35:00
9:55 PM,-3.1,-5.6,89,30.22,10.0,Calm,Calm,-,N/A,,Clear,0,2014-02-04 03:55:00
10:15 PM,-3.3,-5.6,90,30.22,10.0,Calm,Calm,-,N/A,,Clear,0,2014-02-04 04:15:00
10:35 PM,-3.5,-6.0,89,30.22,10.0,Calm,Calm,-,N/A,,Clear,0,2014-02-04 04:35:00
10:55 PM,-6.0,-9.4,85,30.22,10.0,Calm,Calm,-,N/A,,Clear,0,2014-02-04 04:55:00
11:15 PM,-7.1,-9.8,88,30.23,10.0,Calm,Calm,-,N/A,,Clear,0,2014-02-04 05:15:00
11:35 PM,-9.9,-13.5,84,30.23,10.0,Calm,Calm,-,N/A,,Clear,0,2014-02-04 05:35:00
11:55 PM,-8.1,-11.2,86,30.25,10.0,Calm,Calm,-,N/A,,Clear,0,2014-02-04 05:55:00